Location: New Paltz
(41.7500°N, 74.0833°W)
Time: 14:46:18
(UTC-04:00)

Daily predictions for brighter satellites

Satellite Brightness Start Highest point End
(mag) Time Altitude Azimuth Time Altitude Azimuth Time Altitude Azimuth
Shenzhou-11 Module 2.7 20:47:26 10° W 20:50:23 43° SSW 20:53:19 10° SE
Cosmos 1816 Rocket 4.5 20:45:04 10° S 20:51:13 75° E 20:57:21 10° N
ATLAS 5 CENTAUR R/B 3.6 20:47:58 10° NNW 20:53:07 30° NE 20:58:40 10° ESE
YAOGAN 6 3.2 20:50:43 10° SE 20:54:15 42° ENE 20:57:46 10° N
Cosmos 1933 4.0 20:50:25 10° NNW 20:54:23 58° W 20:58:19 10° S
Cosmos 1939 Rocket 3.0 20:51:13 10° SSE 20:55:20 70° ENE 20:59:27 10° N
COSMOS 2487 4.5 20:52:22 10° NW 20:55:28 28° WSW 20:58:34 10° SSW
Meteor 2-10 Rocket 4.5 20:54:13 10° NNW 20:59:56 59° W 21:05:36 10° S
Okean 1-7 3.9 20:57:37 10° N 21:01:38 33° ENE 21:05:37 10° SE
Cosmos 1937 Rocket 3.8 20:56:53 10° SSW 21:02:00 72° WNW 21:07:10 10° NNE
H-2A ROCKET BODY 3.5 21:00:58 10° S 21:02:32 13° SSE 21:04:50 10° SE
Aureole 3 3.9 21:00:21 10° SSE 21:02:49 23° E 21:05:15 10° NE
GPS 2-04 Rocket1 3.5 21:01:09 10° WSW 21:04:31 31° S 21:07:35 11° ESE
H-2A R/B 3.7 21:02:07 10° ESE 21:05:51 19° ENE 21:09:33 10° NNE
ARGOS 4.1 21:06:10 10° SE 21:10:49 31° ENE 21:15:28 10° N
DNEPR-1 R/B 4.4 21:08:03 10° S 21:12:57 37° ESE 21:17:10 10° NE
Meteor 1-29 3.2 21:10:09 10° NNE 21:13:34 50° E 21:16:57 10° S
Cosmos 1703 Rocket 3.6 21:09:55 10° N 21:14:20 68° E 21:18:41 10° SSE
Meteor 2-3 Rocket 3.9 21:13:52 10° SSW 21:19:35 80° W 21:25:17 10° N
Cosmos 1408 3.3 21:18:07 10° SSE 21:21:32 36° E 21:24:58 10° NNE
Milstar 3 4.4 21:13:49 10° SW 21:24:00 29° S 21:29:45 14° ESE
Cosmos 1782 3.1 21:22:11 10° N 21:26:05 48° E 21:29:11 15° SSE
ERS-1 Rocket 3.1 21:23:31 11° SSE 21:28:16 63° ENE 21:33:16 10° N
Cosmos 1825 2.5 21:28:20 11° SSE 21:31:45 45° E 21:35:23 10° NNE
Cosmos 2344 3.9 21:24:43 10° S 21:31:47 42° ESE 21:39:21 10° NE
Cosmos 1869 Rocket 3.5 21:28:59 10° S 21:33:18 84° E 21:37:41 10° N
BREEZE-M DEB (TANK) 3.6 21:32:22 10° NW 21:35:16 47° NNE 21:45:01 10° ESE
Cosmos 1048 Rocket 4.3 21:30:37 10° NNW 21:35:52 55° ENE 21:39:39 18° SE
Helios 1B rocket 2.9 21:32:49 10° N 21:36:54 64° WNW 21:40:57 10° SSW
Cosmos 2084 3.4 21:34:42 10° NW 21:38:31 65° SW 21:41:16 18° SSE
USA 215 3.4 21:35:07 15° ESE 21:40:40 71° NE 21:47:13 10° NW
MetOp-A 4.1 21:40:51 15° SSE 21:45:22 77° ENE 21:50:44 10° N
Cosmos 1862 3.9 21:43:53 21° SSE 21:45:58 38° E 21:49:40 10° NNE
Lacrosse 4 Rocket 2.1 21:42:39 10° NNW 21:47:00 45° ENE 21:49:28 23° ESE
Cosmos 2221 Rocket 3.8 21:44:29 10° NNW 21:48:54 72° W 21:52:52 13° S
ISS -2.6 21:49:53 10° WSW 21:53:00 44° NNW 21:56:09 10° NE
Cosmos 1943 Rocket 2.1 21:47:43 10° SSW 21:53:17 77° ESE 21:58:51 10° NNE
Terra 3.3 21:54:14 18° E 21:56:14 23° ENE 21:59:58 10° NNE
deb Kosmos-1763 4.0 21:56:12 10° NNW 22:00:00 88° ENE 22:01:44 31° SSE
Cosmos 2263 4.5 21:57:03 10° SSW 22:02:48 73° WNW 22:08:33 10° NNE
Tiangong 2 2.9 22:00:38 10° W 22:03:01 19° SSW 22:03:23 19° SSW
Cosmos 1674 Rocket 4.3 21:59:10 10° N 22:03:08 34° ENE 22:04:29 28° ESE
SPOT 1/Viking Rocket 3.7 22:00:53 25° SE 22:03:46 57° ENE 22:08:53 10° N
CENTAUR R/B 2.6 21:59:50 10° SW 22:05:50 84° NW 22:12:45 10° NE
Cosmos 372 Rocket 3.9 22:01:07 10° SSW 22:06:15 85° WNW 22:11:24 10° NNE
Cosmos 1340 2.6 22:03:11 10° N 22:07:00 85° W 22:08:45 30° S
BREEZE M DEB (TANK) 4.0 21:57:15 10° WSW 22:10:08 88° NNW 22:13:52 10° ENE
Cosmos 1092 Rocket 4.4 22:07:21 25° SE 22:10:16 41° E 22:15:57 10° NNE
Cosmos 1437 4.3 22:07:51 10° NNE 22:10:20 22° ENE 22:10:20 22° ENE
Nadezhda 4 Rocket 4.0 22:06:49 20° SSE 22:11:04 60° E 22:17:08 10° NNE
COSMOS 2455 4.1 22:05:48 10° SW 22:11:30 44° NW 22:17:15 10° NNE
SPOT 5 3.1 22:08:10 23° SSE 22:11:34 89° E 22:16:54 10° NNW
Cosmos 1269 Rocket 4.1 22:06:35 10° NNW 22:11:53 79° WSW 22:14:56 26° S
Cosmos 2369 Rocket 3.5 22:09:44 10° SW 22:15:05 42° WNW 22:20:30 10° NNE
GEOS 3 Rocket 4.4 22:13:40 23° ESE 22:16:29 42° NE 22:21:24 10° NNW
Cosmos 1125 Rocket 4.1 22:11:41 10° SSW 22:16:51 58° WNW 22:22:01 10° NNE
H-2A R/B 3.5 22:16:52 20° E 22:17:38 21° ENE 22:20:42 10° NNE
YAOGAN 11 4.2 22:16:37 29° S 22:18:57 80° WSW 22:23:29 10° NNW
Cosmos 1833 4.2 22:15:20 10° NNW 22:21:10 90° SW 22:24:01 31° SSE
Cosmos 1606 4.0 22:17:56 10° NNW 22:21:24 35° W 22:23:47 17° SSW
Lacrosse 5 rocket 3.1 22:22:22 10° W 22:25:35 30° NW 22:28:52 10° NNE
Okean 3 4.1 22:22:51 10° N 22:26:46 37° ENE 22:27:17 36° E
IGS 5A 4.0 22:29:14 39° E 22:29:56 42° ENE 22:33:52 10° N
Cosmos 2297 Rocket 4.4 22:30:10 10° NNE 22:33:19 15° NE 22:36:27 10° E
ATLAS 5 CENTAUR R/B 2.7 22:32:14 10° NW 22:38:12 62° WSW 22:41:08 33° S
Cosmos 1908 Rocket 3.8 22:38:32 49° ESE 22:39:01 51° E 22:43:20 10° NNE
Meteor 1-27 Rocket 4.2 22:34:28 10° NNW 22:40:07 59° W 22:43:17 26° SSW
Cosmos 1867 3.7 22:34:49 10° NNW 22:40:14 62° NE 22:42:05 40° ESE
H-2A R/B 2.5 22:42:09 30° S 22:44:48 60° W 22:50:05 10° NNW
Cosmos 494 Rocket 3.9 22:42:47 10° NNW 22:48:02 79° ENE 22:49:23 50° SSE
Intercosmos 25 Rocket 4.4 22:41:30 10° N 22:48:50 71° W 22:50:46 37° SSW
ARGOS 4.4 22:47:36 18° SSW 22:50:57 35° W 22:55:51 10° NNW
Cosmos 1656 Rocket 3.6 22:48:00 19° SSW 22:51:57 80° WNW 22:57:31 10° NNE
Cosmos 2195 Rocket 4.5 22:58:09 43° SSE 23:00:19 71° E 23:06:38 10° NNE
deb Chang Zheng 4 4.0 22:56:10 10° NNE 23:00:04 46° E 23:00:04 46° E
Cosmos 1733 Rocket 4.4 23:01:47 20° SW 23:04:09 34° WNW 23:08:07 10° N
CZ-4B R/B 3.9 23:00:46 10° NNE 23:05:10 42° E 23:05:10 42° E
Cosmos 1782 Rocket 3.7 23:06:37 58° ENE 23:06:37 58° ENE 23:10:41 10° NNE
Meteor 1-25 Rocket 4.3 23:07:14 52° SE 23:08:16 61° E 23:14:02 10° NNE
Sich 1 Rocket 3.6 23:12:21 64° SW 23:12:52 73° W 23:17:18 10° N
Cosmos 1655 Rocket 4.0 23:13:17 51° SE 23:14:32 61° E 23:20:40 10° NNE
Cosmos 2227 Rocket 3.0 23:18:16 10° N 23:23:34 39° ENE 23:24:44 35° E
CZ-2C R/B 3.9 23:19:25 10° NE 23:22:59 26° E 23:22:59 26° E
USA 215 4.1 23:22:28 30° SSW 23:23:57 33° SW 23:29:49 10° WNW
Meteor 1-14 Rocket 4.3 23:22:21 46° SSW 23:24:10 78° W 23:30:00 10° N
Lacrosse 4 Rocket 3.5 23:22:15 10° WNW 23:25:21 18° WSW 23:25:48 18° WSW
Cosmos 1975 Rocket 3.1 23:23:47 10° N 23:28:04 82° N 23:28:04 82° N
Cosmos 2219 3.2 23:23:46 10° NNW 23:29:30 70° WSW 23:30:23 60° SSW
Cosmos 2026 Rocket 4.0 23:28:05 48° SSW 23:29:55 79° W 23:36:12 10° N
ISS -0.7 23:27:58 10° NW 23:30:06 16° N 23:32:14 10° NNE
Cosmos 1633 4.3 23:33:17 27° NNE 23:33:17 27° NNE 23:35:06 10° NNE
ALOS 2 4.2 23:32:47 24° ENE 23:32:47 24° ENE 23:36:04 10° NNE
Terra 2.7 23:33:08 37° WSW 23:33:44 38° W 23:38:11 10° NNW
Cosmos 1812 3.5 23:30:10 10° NNW 23:33:20 50° NW 23:33:20 50° NW
ATLAS CENTAUR R/B 2.0 23:36:09 51° NNW 23:36:09 51° NNW 23:39:24 10° NNE
BREEZE-M DEB (TANK) 3.4 23:36:03 55° SSW 23:37:10 75° SE 23:51:32 10° ENE
Cosmos 2251 Rocket 4.2 23:35:30 10° NNW 23:40:26 42° WSW 23:40:56 41° WSW
Meteor 1-11 Rocket 4.4 23:43:43 42° E 23:43:43 42° E 23:49:16 10° NNE
Gbstr 26 Del rocket 3.8 23:40:12 10° NW 23:44:06 42° NNE 23:44:06 42° NNE
Cosmos 1417 Rocket 4.5 23:38:44 10° N 23:45:01 81° W 23:46:11 61° SSW
Cosmos 2369 4.2 23:46:56 45° E 23:46:56 45° E 23:51:41 10° NE
ARGOS Delta rocket 3.8 23:41:59 10° N 23:46:12 68° NW 23:46:12 68° NW
Meteor 2-11 Rocket 4.3 23:41:24 10° N 23:47:33 82° W 23:48:29 65° SSW
Cosmos 1428 Rocket 4.5 23:46:28 58° SSW 23:47:48 82° W 23:54:10 10° N
CZ-4C R/B 3.9 23:50:07 60° NW 23:50:07 60° NW 23:53:36 10° NNW
Cosmos 1980 Rocket 4.3 23:51:05 13° E 23:51:05 13° E 23:52:25 10° ENE
Meteor 2-4 Rocket 4.4 23:46:07 10° N 23:51:06 38° ENE 23:51:11 38° ENE
Cosmos 1536 Rocket 4.4 23:47:37 10° N 23:51:02 42° NE 23:51:02 42° NE
S3M 3.8 23:46:00 10° N 23:52:09 90° E 23:52:56 70° S
H-2A R/B 3.4 23:53:59 31° W 23:53:59 31° W 23:57:09 10° NNW
Cosmos 405 Rocket 4.3 23:51:31 10° NNW 23:53:54 30° NW 23:53:54 30° NW
Okean 1 4.3 23:51:57 10° NNW 23:54:53 45° NW 23:54:53 45° NW
